Arctic Village, AK

5:28 PM AKDT on April 19, 2018 (GMT -0800)
Arctic Village

Weather History for PARC - September, 2014

Change the Weather History Date:

Wednesday, September 3, 2014

  Actual Average Record
Temperature  
Mean Temperature 32 °F -  
Max Temperature 35 °F 53 °F 70 °F (1990)
Min Temperature 28 °F 31 °F 20 °F (1990)
Degree Days  
Heating Degree Days 34    
Moisture  
Dew Point 15 °F    
Average Humidity 53    
Maximum Humidity 93    
Minimum Humidity 35    
Precipitation  
Precipitation 0.00 in - - ()
Sea Level Pressure  
Sea Level Pressure 29.69 in    
Wind  
Wind Speed 12 mph (West)    
Max Wind Speed 21 mph    
Max Gust Speed 31 mph    
Visibility 10 miles    
Events      
Averages and records for this station are not official NWS values.
T = Trace of Precipitation, MM = Missing Value Source: NWS Daily Summary

Daily Weather History Graph

Daily Weather History Graph

Search for Another Location

Airport or City:

Astronomy

Sep. 03, 2014 Rise Set
Actual Time 6:16 AM AKDT 9:04 PM AKDT
Civil Twilight 5:11 AM AKDT 10:08 PM AKDT
Nautical Twilight 3:30 AM AKDT 11:45 PM AKDT
Astronomical Twilight Sun does not set Sun does not set
Moon 6:49 PM AKDT (9/3) 11:26 PM AKDT (9/3)
Length of Visible Light 16h 56m
Length of Day
14h 48m
Waxing Gibbous, 65% of the Moon is Illuminated
Sep 3
Waxing Gibbous
Sep 8
Full
Sep 15
Last Quarter
Sep 23
New
Oct 1
First Quarter

Hourly Weather History & Observations

Time (AKDT) Temp. Windchill Dew Point Humidity Pressure Visibility Wind Dir Wind Speed Gust Speed Precip Events Conditions
12:16 AM 30.2 °F 24.3 °F 26.6 °F 86% 29.60 in 10.0 mi SW 5.8 mph - N/A   Clear
12:36 AM 30.2 °F 25.4 °F 24.8 °F 80% 29.60 in 10.0 mi SW 4.6 mph - N/A   Clear
12:56 AM 30.2 °F 20.2 °F 24.8 °F 80% 29.59 in 10.0 mi SW 12.7 mph 17.3 mph N/A   Mostly Cloudy
1:16 AM 32.0 °F 21.6 °F 23.0 °F 69% 29.58 in 10.0 mi WSW 15.0 mph 23.0 mph N/A   Mostly Cloudy
1:36 AM 32.0 °F 20.8 °F 23.0 °F 69% 29.58 in 10.0 mi SW 17.3 mph - N/A   Partly Cloudy
1:56 AM 32.0 °F 20.8 °F 23.0 °F 69% 29.58 in 10.0 mi WSW 17.3 mph - N/A   Scattered Clouds
2:16 AM 32.0 °F 20.8 °F 23.0 °F 69% 29.57 in 10.0 mi WSW 17.3 mph 23.0 mph N/A   Partly Cloudy
2:36 AM 32.0 °F 21.2 °F 23.0 °F 69% 29.57 in 10.0 mi WSW 16.1 mph 21.9 mph N/A   Clear
2:56 AM 30.2 °F 19.8 °F 23.0 °F 75% 29.56 in 10.0 mi WSW 13.8 mph - N/A   Clear
3:16 AM 30.2 °F 19.3 °F 24.8 °F 80% 29.56 in 10.0 mi WSW 15.0 mph - N/A   Clear
3:36 AM 30.2 °F 19.3 °F 24.8 °F 80% 29.56 in 10.0 mi WSW 15.0 mph 20.7 mph N/A   Clear
3:56 AM 30.2 °F 21.3 °F 24.8 °F 80% 29.56 in 10.0 mi WSW 10.4 mph - N/A   Clear
4:16 AM 30.2 °F 23.4 °F 24.8 °F 80% 29.57 in 10.0 mi West 6.9 mph - N/A   Clear
4:36 AM 30.2 °F 24.3 °F 24.8 °F 80% 29.58 in 10.0 mi NW 5.8 mph - N/A   Partly Cloudy
4:56 AM 28.4 °F 18.0 °F 24.8 °F 86% 29.60 in 0.5 mi NW 12.7 mph 24.2 mph N/A   Overcast
5:16 AM 28.4 °F - 24.8 °F 86% 29.59 in 10.0 mi Calm Calm - N/A   Overcast
5:36 AM 28.4 °F 19.7 °F 26.6 °F 93% 29.60 in 10.0 mi South 9.2 mph - N/A   Overcast
5:56 AM 28.4 °F 23.3 °F 21.2 °F 74% 29.61 in 10.0 mi SW 4.6 mph - N/A   Overcast
6:16 AM 30.2 °F 20.8 °F 14.0 °F 51% 29.62 in 10.0 mi NW 11.5 mph - N/A   Overcast
6:36 AM 30.2 °F - 15.8 °F 55% 29.61 in 10.0 mi Calm Calm - N/A   Overcast
6:56 AM 28.4 °F 21.2 °F 17.6 °F 64% 29.62 in 10.0 mi WSW 6.9 mph - N/A   Scattered Clouds
7:16 AM 30.2 °F 17.4 °F 10.4 °F 44% 29.61 in 10.0 mi WNW 20.7 mph 25.3 mph N/A   Mostly Cloudy
7:36 AM 30.2 °F 18.5 °F 8.6 °F 40% 29.62 in 10.0 mi WNW 17.3 mph 27.6 mph N/A   Mostly Cloudy
7:56 AM 30.2 °F 19.8 °F 8.6 °F 40% 29.63 in 10.0 mi WNW 13.8 mph 23.0 mph N/A   Clear
8:16 AM 30.2 °F 17.8 °F 8.6 °F 40% 29.64 in 10.0 mi WNW 19.6 mph 23.0 mph N/A   Clear
8:36 AM 30.2 °F 21.3 °F 10.4 °F 44% 29.65 in 10.0 mi West 10.4 mph - N/A   Clear
8:56 AM 30.2 °F 24.3 °F 8.6 °F 40% 29.67 in 10.0 mi WNW 5.8 mph - N/A   Clear
9:16 AM 30.2 °F 20.2 °F 8.6 °F 40% 29.67 in 10.0 mi West 12.7 mph 20.7 mph N/A   Clear
9:36 AM 30.2 °F 19.3 °F 10.4 °F 44% 29.68 in 10.0 mi West 15.0 mph 23.0 mph N/A   Clear
9:56 AM 30.2 °F 20.2 °F 10.4 °F 44% 29.69 in 10.0 mi West 12.7 mph 18.4 mph N/A   Clear
10:16 AM 32.0 °F 20.8 °F 10.4 °F 41% 29.69 in 10.0 mi West 17.3 mph 28.8 mph N/A   Clear
10:36 AM 30.2 °F 18.1 °F 12.2 °F 47% 29.70 in 10.0 mi West 18.4 mph 24.2 mph N/A   Clear
10:56 AM 32.0 °F 23.6 °F 10.4 °F 41% 29.72 in 10.0 mi WNW 10.4 mph 29.9 mph N/A   Clear
11:16 AM 32.0 °F 20.1 °F 8.6 °F 38% 29.72 in 10.0 mi WNW 19.6 mph 31.1 mph N/A   Clear
11:36 AM 33.8 °F 23.2 °F 8.6 °F 35% 29.74 in 10.0 mi NW 17.3 mph 25.3 mph N/A   Clear
11:56 AM 33.8 °F 22.5 °F 8.6 °F 35% 29.75 in 10.0 mi WNW 19.6 mph 26.5 mph N/A   Clear
12:16 PM 33.8 °F 27.0 °F 8.6 °F 35% 29.77 in 10.0 mi West 8.1 mph 23.0 mph N/A   Clear
12:36 PM 33.8 °F 25.3 °F 10.4 °F 38% 29.78 in 10.0 mi NW 11.5 mph 21.9 mph N/A   Partly Cloudy
12:56 PM 33.8 °F 23.2 °F 8.6 °F 35% 29.79 in 10.0 mi WNW 17.3 mph 24.2 mph N/A   Scattered Clouds
1:16 PM 33.8 °F 23.9 °F 10.4 °F 38% 29.79 in 10.0 mi WNW 15.0 mph 24.2 mph N/A   Scattered Clouds
1:36 PM 35.6 °F 25.5 °F 10.4 °F 35% 29.80 in 10.0 mi NW 17.3 mph 23.0 mph N/A   Clear
1:56 PM 35.6 °F 26.6 °F 10.4 °F 35% 29.80 in 10.0 mi West 13.8 mph 24.2 mph N/A   Clear
2:16 PM 35.6 °F 25.2 °F 10.4 °F 35% 29.81 in 10.0 mi West 18.4 mph 25.3 mph N/A   Clear
2:36 PM 33.8 °F 22.8 °F 10.4 °F 38% 29.82 in 10.0 mi West 18.4 mph 25.3 mph N/A   Mostly Cloudy
2:56 PM 33.8 °F 24.8 °F 12.2 °F 41% 29.83 in 10.0 mi West 12.7 mph 20.7 mph N/A   Mostly Cloudy
3:16 PM 33.8 °F 24.8 °F 10.4 °F 38% 29.83 in 10.0 mi West 12.7 mph 18.4 mph N/A   Partly Cloudy
3:36 PM 35.6 °F 26.6 °F 12.2 °F 38% 29.84 in 10.0 mi WSW 13.8 mph 21.9 mph N/A   Mostly Cloudy
3:56 PM 35.6 °F 26.2 °F 10.4 °F 35% 29.84 in 10.0 mi West 15.0 mph 23.0 mph N/A   Scattered Clouds
4:16 PM 35.6 °F 25.9 °F 12.2 °F 38% 29.84 in 10.0 mi West 16.1 mph 24.2 mph N/A   Mostly Cloudy
4:36 PM 35.6 °F 24.5 °F 10.4 °F 35% 29.84 in 10.0 mi WNW 20.7 mph 24.2 mph N/A   Partly Cloudy
4:56 PM 35.6 °F 28.0 °F 12.2 °F 38% 29.85 in 10.0 mi West 10.4 mph 23.0 mph N/A   Clear
5:16 PM 35.6 °F 25.5 °F 12.2 °F 38% 29.85 in 10.0 mi WNW 17.3 mph 23.0 mph N/A   Clear
5:36 PM 35.6 °F 26.6 °F 12.2 °F 38% 29.86 in 10.0 mi WNW 13.8 mph 20.7 mph N/A   Clear